Location: Woodstock
(35.2731°N, 89.9823°W)
Time: 17:40:01
(UTC+00:00)

Vanguard 3 - Pass Details

Date: 28 May 2025
Orbit: 508 x 3215 km, 33.3° (Epoch: 14 June)

Event Time Altitude Azimuth Distance (km) Brightness Sun altitude
Rises 04:40:43 0° 214° (SW) 7,054 11.6 -30.4°
Enters shadow 04:42:54 - 211° (SSW) 6,596 11.4 -30.6°
Reaches altitude 10° 04:46:33 10° 206° (SSW) 5,820 - -30.8°
Maximum altitude 05:00:24 32° 152° (SSE) 3,414 - -31.6°
Exits shadow 05:08:44 14° 99° (E) 3,762 10.3 -32.1°
Drops below altitude 10° 05:09:48 10° 94° (E) 3,943 10.5 -32.1°
Sets 05:12:50 0° 85° (E) 4,582 10.9 -32.3°
